Location: ????
(55.5675°N, 37.6272°E)
Time: 08:49:20
(UTC+00:00)

Cosmos 2333 Rocket - Pass Details

Date: 14 April 2026
Orbit: 842 x 860 km, 70.8° (Epoch: 14 May)

Event Time Altitude Azimuth Distance (km) Brightness Sun altitude
Rises 17:24:43 0° 236° (SW) 3,397 5.7 -7.5°
Reaches altitude 10° 17:27:16 10° 242° (WSW) 2,464 5.1 -7.8°
Maximum altitude 17:32:42 47° 316° (NW) 1,116 3.4 -8.5°
Drops below altitude 10° 17:38:10 10° 30° (NNE) 2,473 4.7 -9.1°
Sets 17:40:44 0° 36° (NE) 3,412 5.3 -9.4°
